When you browse on this site, cookies collect data to enhance your experience and personalize the content and advertising you see.
Visit our Privacy Policy to learn more. By continuing to use the site, you agree to this use of cookies and data.
  • In Sweden
  • List of Countries
  • For 7 days
  • Water Temperature
  • Satellite Maps
  • Weather Map
  • Weather Widgets
  • user-avatar
    Login

    Hourly Weather Boston

    Today, 16 June, Sunday

    Time Temperature Precipitation Wind Pressure Humidity
    00:00 +9°C° 0 mm 3 mps 759 mmHg 94%
    01:00 +8°C° 0 mm 3 mps 759 mmHg 93%
    02:00 +8°C° 0 mm 3 mps 759 mmHg 92%
    03:00 +7°C° 0 mm 3 mps 759 mmHg 92%
    04:00 +7°C° 0 mm 4 mps 760 mmHg 92%
    05:00 +8°C° 0 mm 4 mps 760 mmHg 92%
    06:00 +10°C° 0 mm 4 mps 760 mmHg 95%
    07:00 +12°C° 0 mm 5 mps 760 mmHg 90%
    08:00 +13°C° 0 mm 5 mps 760 mmHg 86%
    09:00 +15°C° 0 mm 6 mps 760 mmHg 81%
    10:00 +15°C° 0.2 mm 6 mps 760 mmHg 82%
    11:00 +16°C° 0.2 mm 7 mps 760 mmHg 83%
    12:00 +16°C° 0.2 mm 7 mps 760 mmHg 83%
    13:00 +17°C° 0.3 mm 7 mps 760 mmHg 83%
    14:00 +17°C° 0.3 mm 7 mps 760 mmHg 82%
    15:00 +18°C° 0.3 mm 7 mps 760 mmHg 81%
    16:00 +17°C° 0.2 mm 7 mps 760 mmHg 83%
    17:00 +17°C° 0.2 mm 6 mps 760 mmHg 85%
    18:00 +17°C° 0.2 mm 6 mps 760 mmHg 86%
    19:00 +15°C° 0.1 mm 6 mps 760 mmHg 89%
    20:00 +14°C° 0.1 mm 5 mps 761 mmHg 91%
    21:00 +13°C° 0.1 mm 5 mps 761 mmHg 93%
    22:00 +13°C° 0 mm 6 mps 761 mmHg 93%
    23:00 +11°C° 0 mm 6 mps 761 mmHg 93%

    Tomorrow, 17 June, Monday

    Time Temperature Precipitation Wind Pressure Humidity
    00:00 +11°C° 0 mm 6 mps 762 mmHg 92%
    01:00 +10°C° 0 mm 6 mps 761 mmHg 93%
    02:00 +10°C° 0 mm 6 mps 761 mmHg 94%
    03:00 +9°C° 0 mm 6 mps 761 mmHg 94%
    04:00 +10°C° 0 mm 7 mps 761 mmHg 93%
    05:00 +10°C° 0 mm 7 mps 761 mmHg 92%
    06:00 +11°C° 0 mm 7 mps 761 mmHg 92%
    07:00 +12°C° 0 mm 7 mps 761 mmHg 88%
    08:00 +14°C° 0 mm 7 mps 761 mmHg 84%
    09:00 +16°C° 0 mm 7 mps 761 mmHg 80%
    10:00 +16°C° 0 mm 7 mps 761 mmHg 79%
    11:00 +17°C° 0 mm 7 mps 761 mmHg 78%
    12:00 +18°C° 0 mm 7 mps 761 mmHg 77%
    13:00 +18°C° 0.1 mm 7 mps 761 mmHg 77%
    14:00 +18°C° 0.1 mm 7 mps 761 mmHg 77%
    15:00 +18°C° 0.1 mm 7 mps 761 mmHg 77%
    16:00 +19°C° 0.2 mm 6 mps 760 mmHg 80%
    17:00 +17°C° 0.2 mm 6 mps 760 mmHg 84%
    18:00 +17°C° 0.2 mm 5 mps 760 mmHg 87%
    19:00 +16°C° 0 mm 5 mps 760 mmHg 89%
    20:00 +15°C° 0 mm 5 mps 761 mmHg 92%
    21:00 +14°C° 0 mm 4 mps 761 mmHg 94%
    22:00 +13°C° 0 mm 4 mps 761 mmHg 95%
    23:00 +12°C° 0 mm 4 mps 761 mmHg 95%

    Day after tomorrow, 18 June, Tuesday

    Time Temperature Precipitation Wind Pressure Humidity
    00:00 +12°C° 0 mm 4 mps 761 mmHg 96%
    01:00 +11°C° 0 mm 4 mps 761 mmHg 96%
    02:00 +11°C° 0 mm 3 mps 761 mmHg 97%
    03:00 +10°C° 0 mm 3 mps 761 mmHg 97%
    04:00 +11°C° 0 mm 3 mps 761 mmHg 96%
    05:00 +12°C° 0 mm 3 mps 761 mmHg 95%
    06:00 +12°C° 0 mm 3 mps 761 mmHg 94%
    07:00 +14°C° 0 mm 3 mps 761 mmHg 89%
    08:00 +16°C° 0 mm 3 mps 761 mmHg 84%
    09:00 +18°C° 0 mm 3 mps 761 mmHg 80%
    10:00 +18°C° 0 mm 3 mps 760 mmHg 79%
    11:00 +19°C° 0 mm 3 mps 760 mmHg 78%
    12:00 +19°C° 0 mm 3 mps 760 mmHg 77%
    13:00 +19°C° 0 mm 3 mps 759 mmHg 76%
    14:00 +20°C° 0 mm 2 mps 759 mmHg 75%
    15:00 +20°C° 0 mm 2 mps 759 mmHg 74%
    16:00 +19°C° 0.1 mm 2 mps 758 mmHg 77%
    17:00 +19°C° 0.1 mm 2 mps 758 mmHg 81%
    18:00 +18°C° 0.1 mm 3 mps 758 mmHg 85%
    19:00 +17°C° 1.1 mm 3 mps 758 mmHg 89%
    20:00 +16°C° 1.1 mm 2 mps 758 mmHg 93%
    21:00 +15°C° 1.1 mm 2 mps 758 mmHg 97%
    22:00 +15°C° 1.7 mm 2 mps 757 mmHg 97%
    23:00 +15°C° 1.7 mm 2 mps 757 mmHg 97%

    19 June, Wednesday

    Time Temperature Precipitation Wind Pressure Humidity
    00:00 +15°C° 1.7 mm 2 mps 757 mmHg 98%
    01:00 +15°C° 0.2 mm 2 mps 756 mmHg 97%
    02:00 +14°C° 0.2 mm 2 mps 756 mmHg 96%
    03:00 +14°C° 0.2 mm 2 mps 755 mmHg 95%
    04:00 +14°C° 0 mm 2 mps 755 mmHg 94%
    05:00 +15°C° 0 mm 1 mps 754 mmHg 94%
    06:00 +15°C° 0 mm 1 mps 754 mmHg 93%
    07:00 +16°C° 0 mm 1 mps 754 mmHg 92%
    08:00 +16°C° 0 mm 1 mps 754 mmHg 90%
    09:00 +17°C° 0 mm 2 mps 753 mmHg 89%
    10:00 +17°C° 0.3 mm 2 mps 753 mmHg 90%
    11:00 +18°C° 0.3 mm 2 mps 753 mmHg 91%
    12:00 +18°C° 0.3 mm 2 mps 752 mmHg 92%
    13:00 +18°C° 1.5 mm 2 mps 752 mmHg 92%
    14:00 +19°C° 1.5 mm 2 mps 752 mmHg 92%
    15:00 +19°C° 1.5 mm 2 mps 751 mmHg 92%
    16:00 +18°C° 0.9 mm 4 mps 751 mmHg 92%
    17:00 +16°C° 0.9 mm 5 mps 751 mmHg 92%
    18:00 +15°C° 0.9 mm 6 mps 752 mmHg 92%
    19:00 +14°C° 0 mm 5 mps 752 mmHg 93%
    20:00 +14°C° 0 mm 5 mps 753 mmHg 93%
    21:00 +13°C° 0 mm 4 mps 753 mmHg 93%
    22:00 +12°C° 0 mm 4 mps 754 mmHg 94%
    23:00 +11°C° 0 mm 4 mps 754 mmHg 94%

    20 June, Thursday

    Time Temperature Precipitation Wind Pressure Humidity
    00:00 +10°C° 0 mm 5 mps 754 mmHg 94%
    01:00 +10°C° 0 mm 4 mps 754 mmHg 94%
    02:00 +8°C° 0 mm 4 mps 755 mmHg 95%
    03:00 +8°C° 0 mm 4 mps 755 mmHg 95%
    04:00 +8°C° 0 mm 4 mps 755 mmHg 94%
    05:00 +10°C° 0 mm 4 mps 756 mmHg 93%
    06:00 +11°C° 0 mm 4 mps 756 mmHg 92%
    07:00 +12°C° 0 mm 4 mps 756 mmHg 87%
    08:00 +14°C° 0 mm 4 mps 756 mmHg 83%
    09:00 +15°C° 0 mm 4 mps 757 mmHg 79%
    10:00 +16°C° 0.2 mm 5 mps 757 mmHg 75%
    11:00 +16°C° 0.2 mm 5 mps 757 mmHg 72%
    12:00 +17°C° 0.2 mm 6 mps 757 mmHg 69%
    13:00 +17°C° 0.1 mm 5 mps 757 mmHg 70%
    14:00 +17°C° 0.1 mm 5 mps 757 mmHg 71%
    15:00 +17°C° 0.1 mm 5 mps 757 mmHg 72%
    16:00 +16°C° 0.2 mm 5 mps 757 mmHg 75%
    17:00 +17°C° 0.2 mm 4 mps 757 mmHg 79%
    18:00 +15°C° 0.2 mm 4 mps 757 mmHg 82%
    19:00 +14°C° 0.1 mm 4 mps 757 mmHg 84%
    20:00 +13°C° 0.1 mm 4 mps 758 mmHg 85%
    21:00 +11°C° 0.1 mm 4 mps 758 mmHg 87%
    22:00 +11°C° 0 mm 4 mps 758 mmHg 88%
    23:00 +10°C° 0 mm 4 mps 758 mmHg 89%

    21 June, Friday

    Time Temperature Precipitation Wind Pressure Humidity
    00:00 +10°C° 0 mm 4 mps 758 mmHg 90%
    01:00 +8°C° 0 mm 4 mps 758 mmHg 92%
    02:00 +7°C° 0 mm 4 mps 759 mmHg 93%
    03:00 +7°C° 0 mm 4 mps 759 mmHg 95%
    04:00 +8°C° 0 mm 4 mps 759 mmHg 93%
    05:00 +9°C° 0 mm 5 mps 759 mmHg 91%
    06:00 +9°C° 0 mm 5 mps 759 mmHg 90%
    07:00 +12°C° 0.1 mm 4 mps 759 mmHg 87%
    08:00 +13°C° 0.1 mm 4 mps 760 mmHg 84%
    09:00 +15°C° 0.1 mm 4 mps 760 mmHg 80%
    10:00 +15°C° 0.5 mm 4 mps 760 mmHg 78%
    11:00 +17°C° 0.5 mm 4 mps 760 mmHg 76%
    12:00 +17°C° 0.5 mm 4 mps 760 mmHg 74%
    13:00 +18°C° 0.3 mm 4 mps 760 mmHg 72%
    14:00 +18°C° 0.3 mm 4 mps 760 mmHg 71%
    15:00 +18°C° 0.3 mm 4 mps 761 mmHg 69%
    16:00 +18°C° 0.1 mm 3 mps 761 mmHg 72%
    17:00 +18°C° 0.1 mm 2 mps 761 mmHg 74%
    18:00 +17°C° 0.1 mm 2 mps 761 mmHg 77%
    19:00 +16°C° 0 mm 2 mps 762 mmHg 79%
    20:00 +14°C° 0 mm 2 mps 762 mmHg 81%
    21:00 +12°C° 0 mm 1 mps 763 mmHg 84%
    22:00 +10°C° 0 mm 2 mps 763 mmHg 84%
    23:00 +10°C° 0 mm 2 mps 763 mmHg 85%
    Show more